GW6388 Weather Reports


time (UTC)temp
C
wind
direction
speed
KPH
gust
KPH
rain 1hr
cm
rain 24hr
cm
rain mn
cm
humidity
%
barometer
mb
20260510061308 11 48 0.0 0.0 0.00 0.41 0.41 98 1092.1
20260510060804 11 45 0.0 0.0 0.00 0.41 0.41 98 1091.9
20260510060301 11 38 0.0 0.0 0.00 0.41 0.41 98 1092.2
20260510055758 11 38 0.0 0.0 0.00 0.41 0.41 98 1092.2
20260510055256 11 38 0.0 0.0 0.00 0.41 0.41 98 1092.2
20260510054755 12 33 0.0 0.0 0.00 0.41 0.41 98 1092.4
20260510054252 12 9 0.0 0.0 0.00 0.41 0.41 98 1092.4
20260510053752 12 359 1.6 3.2 0.00 0.41 0.41 98 1092.5
20260510053247 12 312 3.2 3.2 0.00 0.41 0.41 98 1092.4
20260510052744 12 344 3.2 4.8 0.13 0.41 0.41 98 1092.2
20260510052240 12 2 1.6 4.8 0.13 0.41 0.41 98 1091.9
20260510051736 12 332 1.6 4.8 0.48 0.38 0.38 98 1091.7
20260510051233 12 104 6.4 6.4 0.71 0.36 0.36 98 1091.6
20260510050729 12 77 3.2 6.4 0.66 0.28 0.28 98 1092.6
20260510050227 12 290 4.8 6.4 0.48 0.23 0.23 98 1093.3
20260510045723 12 26 0.0 0.0 0.13 0.18 0.18 98 1093.0
20260510045220 12 2 0.0 0.0 0.00 0.15 0.15 98 1093.0
20260510044716 12 30 0.0 0.0 0.00 0.15 0.15 98 1092.8
20260510044216 12 21 0.0 0.0 0.18 0.15 0.15 98 1092.6
20260510043710 12 19 0.0 0.0 0.30 0.15 0.15 98 1092.8
20260510043207 12 22 0.0 0.0 0.30 0.13 0.13 98 1092.6
20260510042704 12 21 0.0 0.0 0.30 0.10 0.10 98 1092.7
20260510042200 12 18 0.0 1.6 0.30 0.05 0.05 98 1092.7
20260510041657 11 54 0.0 0.0 0.30 0.05 0.05 98 1092.2
20260510041154 11 26 0.0 0.0 0.00 0.00 0.00 98 1092.5
20260510040651 11 22 0.0 0.0 0.00 0.00 0.00 97 1092.4
20260510040148 11 6 0.0 0.0 0.00 0.00 0.00 97 1092.2
20260510035643 11 22 0.0 0.0 0.00 0.84 0.84 97 1091.9
20260510035138 11 25 0.0 0.0 0.00 0.84 0.84 97 1091.6
20260510034635 11 34 0.0 0.0 0.00 0.84 0.84 97 1091.8
20260510034133 11 36 0.0 0.0 0.00 0.84 0.84 97 1091.6
20260510033629 11 33 0.0 0.0 0.00 0.84 0.84 97 1091.7
20260510033127 11 33 0.0 0.0 0.00 0.84 0.84 97 1091.4
20260510032623 11 24 0.0 0.0 0.00 0.84 0.84 97 1091.8
20260510032118 12 27 0.0 0.0 0.00 0.84 0.84 97 1091.8
20260510031613 12 38 0.0 0.0 0.00 0.84 0.84 97 1091.4
20260510031110 12 30 0.0 0.0 0.00 0.84 0.84 97 1091.7
20260510030605 12 23 0.0 1.6 0.00 0.84 0.84 97 1091.9
20260510030103 12 34 0.0 1.6 0.00 0.84 0.84 97 1091.7
20260510025600 12 36 0.0 0.0 0.00 0.84 0.84 97 1091.9
20260510025057 12 29 0.0 3.2 0.18 0.84 0.84 97 1092.1
20260510024554 12 340 1.6 3.2 0.18 0.84 0.84 97 1092.1
20260510024050 12 64 0.0 3.2 0.00 0.81 0.81 97 1092.1
20260510023546 12 53 1.6 3.2 0.30 0.81 0.81 96 1092.2
20260510023044 12 67 1.6 4.8 0.48 0.81 0.81 96 1092.2
20260510022544 12 133 4.8 4.8 0.48 0.76 0.76 96 1092.6
20260510022044 12 45 0.0 0.0 0.61 0.74 0.74 95 1092.8
20260510021540 12 2 0.0 0.0 0.43 0.69 0.69 95 1092.9
20260510021038 12 29 0.0 0.0 0.43 0.64 0.64 95 1092.9
20260510020538 12 338 4.8 4.8 0.48 0.61 0.61 94 1092.9
20260510020034 12 18 0.0 1.6 0.97 0.56 0.56 94 1092.9
20260510015530 12 13 6.4 9.7 0.79 0.51 0.51 93 1092.9
20260510015025 12 312 4.8 9.7 0.30 0.41 0.41 92 1092.7
20260510014522 12 59 3.2 4.8 1.07 0.38 0.38 91 1092.3
20260510014020 12 351 4.8 14.5 0.89 0.33 0.33 87 1092.1
20260510013514 13 23 3.2 4.8 0.00 0.18 0.18 80 1092.2
20260510013010 15 236 20.9 27.4 0.00 0.18 0.18 74 1092.2
20260510012504 16 246 8.0 35.4 0.00 0.18 0.18 68 1092.1
20260510012000 16 339 3.2 4.8 0.00 0.18 0.18 64 1090.1
20260510011455 16 22 0.0 1.6 0.00 0.18 0.18 63 1089.8
20260510010951 16 45 0.0 4.8 0.00 0.18 0.18 63 1089.3
20260510010448 16 28 0.0 1.6 0.00 0.18 0.18 62 1089.4
20260510005945 16 33 0.0 1.6 0.00 0.18 0.18 62 1089.6
20260510005441 16 28 0.0 0.0 0.00 0.18 0.18 62 1089.5
20260510004939 16 34 0.0 1.6 0.00 0.18 0.18 61 1089.2
20260510004436 17 23 0.0 1.6 0.00 0.18 0.18 61 1089.3
20260510003934 17 20 0.0 3.2 0.00 0.18 0.18 60 1089.5
20260510003431 17 30 0.0 1.6 0.00 0.18 0.18 60 1089.4
20260510002930 17 19 0.0 3.2 0.00 0.18 0.18 60 1089.4
20260510002427 17 25 0.0 1.6 0.00 0.18 0.18 58 1089.3
20260510001923 17 25 1.6 3.2 0.00 0.18 0.18 57 1089.4
20260510001421 18 29 0.0 1.6 0.00 0.18 0.18 57 1089.3
20260510000919 18 261 1.6 6.4 0.00 0.18 0.18 56 1089.0
20260510000415 18 88 1.6 4.8 0.00 0.18 0.18 56 1088.8
20260509235911 18 245 9.7 14.5 0.00 0.18 0.18 56 1089.1
20260509235408 18 318 1.6 4.8 0.00 0.18 0.18 56 1088.9
20260509234903 18 297 3.2 11.3 0.00 0.18 0.18 54 1088.9
20260509234401 19 84 3.2 6.4 0.00 0.18 0.18 54 1089.0
20260509233859 19 211 6.4 11.3 0.00 0.18 0.18 53 1089.1
20260509233356 19 307 4.8 9.7 0.00 0.18 0.18 53 1088.8
20260509232852 19 18 0.0 6.4 0.00 0.18 0.18 53 1088.7
20260509232350 19 231 11.3 14.5 0.00 0.18 0.18 52 1088.4
20260509231846 19 295 3.2 11.3 0.00 0.18 0.18 53 1088.9
20260509231343 20 5 1.6 11.3 0.00 0.18 0.18 54 1088.5
20260509230841 19 350 1.6 6.4 0.00 0.18 0.18 54 1088.8
20260509230337 20 304 11.3 12.9 0.00 0.18 0.18 53 1088.9
20260509225832 20 269 1.6 6.4 0.00 0.18 0.18 54 1088.8
20260509225330 19 345 3.2 11.3 0.00 0.18 0.18 53 1088.8
20260509224826 19 220 6.4 11.3 0.00 0.18 0.18 54 1088.5
20260509224322 20 246 9.7 12.9 0.00 0.18 0.18 53 1088.8
20260509223819 20 264 4.8 11.3 0.00 0.18 0.18 53 1088.4
20260509223316 20 26 0.0 3.2 0.00 0.18 0.18 54 1088.7
20260509222812 20 215 3.2 4.8 0.00 0.18 0.18 53 1088.2
20260509222308 20 233 9.7 12.9 0.00 0.18 0.18 53 1088.3
20260509221803 20 355 3.2 6.4 0.00 0.18 0.18 53 1088.7
20260509221301 20 254 3.2 6.4 0.00 0.18 0.18 53 1088.9
20260509220756 20 264 8.0 12.9 0.00 0.18 0.18 51 1088.4
20260509220253 20 328 4.8 9.7 0.00 0.18 0.18 55 1088.7
20260509215748 20 308 6.4 9.7 0.00 0.18 0.18 54 1088.8
20260509215245 20 255 1.6 11.3 0.00 0.18 0.18 54 1088.8
20260509214742 20 20 4.8 12.9 0.00 0.18 0.18 53 1088.5
20260509214239 20 259 4.8 14.5 0.00 0.18 0.18 54 1088.8
20260509213736 19 277 4.8 17.7 0.00 0.18 0.18 54 1089.0
20260509213231 19 275 6.4 9.7 0.00 0.18 0.18 56 1088.8
20260509212729 19 144 3.2 17.7 0.00 0.18 0.18 55 1089.0
20260509212226 19 22 1.6 14.5 0.00 0.18 0.18 55 1089.0
20260509211722 19 145 4.8 12.9 0.00 0.18 0.18 55 1088.8
20260509211219 19 249 8.0 14.5 0.00 0.18 0.18 55 1088.9
20260509210715 19 7 3.2 6.4 0.00 0.18 0.18 56 1088.9
20260509210213 19 306 4.8 16.1 0.00 0.18 0.18 56 1088.9
20260509205712 19 160 6.4 11.3 0.00 0.18 0.18 54 1089.2
20260509205212 20 248 17.7 22.5 0.00 0.18 0.18 53 1089.3
20260509204708 20 208 3.2 17.7 0.00 0.18 0.18 57 1089.2
20260509204205 19 257 11.3 16.1 0.00 0.18 0.18 56 1089.6
20260509203701 19 219 6.4 11.3 0.00 0.18 0.18 55 1089.4
20260509203159 19 40 3.2 6.4 0.00 0.18 0.18 57 1089.8
20260509202655 18 356 4.8 12.9 0.00 0.18 0.18 57 1089.3
20260509202150 18 228 4.8 9.7 0.00 0.18 0.18 60 1089.5
20260509201645 18 245 3.2 9.7 0.00 0.18 0.18 60 1089.6
20260509201143 18 308 4.8 9.7 0.00 0.18 0.18 59 1089.8
20260509200638 18 339 6.4 17.7 0.00 0.18 0.18 60 1089.8
20260509200134 18 288 8.0 11.3 0.00 0.18 0.18 57 1089.6
20260509195630 18 164 6.4 11.3 0.00 0.18 0.18 58 1089.6
20260509195125 18 273 12.9 24.1 0.00 0.18 0.18 61 1090.0
20260509194624 18 88 9.7 14.5 0.00 0.18 0.18 60 1090.0
20260509194122 18 256 8.0 16.1 0.00 0.18 0.18 60 1090.2
20260509193618 18 212 4.8 12.9 0.00 0.18 0.18 62 1090.3
20260509193113 18 268 9.7 11.3 0.00 0.18 0.18 63 1090.1
20260509192611 18 35 1.6 12.9 0.00 0.18 0.18 64 1090.1
20260509192105 17 202 3.2 9.7 0.00 0.18 0.18 66 1090.0
20260509191600 18 288 11.3 17.7 0.00 0.18 0.18 64 1090.1
20260509191057 18 336 0.0 6.4 0.00 0.18 0.18 64 1090.2
20260509190553 17 149 4.8 12.9 0.00 0.18 0.18 67 1090.3
20260509190051 17 263 6.4 17.7 0.00 0.18 0.18 64 1090.3
20260509185548 17 219 4.8 11.3 0.00 0.18 0.18 65 1090.5
20260509185044 17 330 1.6 6.4 0.00 0.18 0.18 67 1090.5
20260509184543 18 209 4.8 12.9 0.00 0.18 0.18 65 1090.5
20260509184039 17 20 0.0 4.8 0.00 0.18 0.18 71 1090.4
20260509183534 17 42 1.6 4.8 0.00 0.18 0.18 67 1090.5
20260509183030 17 215 3.2 9.7 0.00 0.18 0.18 67 1090.6
20260509182527 17 89 1.6 6.4 0.00 0.18 0.18 68 1090.6
20260509182024 17 352 3.2 11.3 0.00 0.18 0.18 66 1090.7
20260509181522 17 270 4.8 12.9 0.00 0.18 0.18 67 1090.8
20260509181020 17 297 3.2 11.3 0.00 0.18 0.18 69 1091.0
20260509180514 17 251 12.9 17.7 0.00 0.18 0.18 65 1090.8
20260509180013 17 254 6.4 6.4 0.00 0.18 0.18 67 1090.8
20260509175508 17 201 4.8 16.1 0.00 0.18 0.18 67 1090.8
20260509175005 17 358 3.2 12.9 0.00 0.18 0.18 69 1091.0
20260509174502 17 249 8.0 9.7 0.00 0.18 0.18 69 1090.7
20260509174002 16 165 4.8 6.4 0.00 0.18 0.18 72 1090.6
20260509173457 16 17 1.6 6.4 0.00 0.18 0.18 73 1090.8
20260509172953 15 344 1.6 4.8 0.00 0.18 0.18 76 1090.8
20260509172450 15 13 0.0 4.8 0.00 0.18 0.18 76 1091.0
20260509171946 15 273 6.4 9.7 0.00 0.18 0.18 75 1091.1
20260509171442 15 217 4.8 6.4 0.00 0.18 0.18 76 1090.8
20260509170938 15 225 4.8 6.4 0.00 0.18 0.18 76 1090.8
20260509170434 15 222 6.4 6.4 0.00 0.18 0.18 76 1091.0
20260509165930 15 325 3.2 9.7 0.00 0.18 0.18 75 1090.7
20260509165424 15 213 3.2 6.4 0.00 0.18 0.18 77 1090.7
20260509164920 15 27 4.8 6.4 0.00 0.18 0.18 77 1090.8
20260509164416 15 285 3.2 9.7 0.00 0.18 0.18 78 1090.7
20260509163912 15 38 4.8 6.4 0.00 0.18 0.18 79 1090.8
20260509163410 15 352 3.2 9.7 0.00 0.18 0.18 79 1090.8
20260509162908 15 298 3.2 4.8 0.00 0.18 0.18 80 1090.7
20260509162407 15 16 3.2 6.4 0.00 0.18 0.18 79 1090.7
20260509161903 15 292 3.2 9.7 0.00 0.18 0.18 77 1090.6
20260509161359 15 263 3.2 14.5 0.00 0.18 0.18 76 1090.6
20260509160855 15 37 0.0 11.3 0.00 0.18 0.18 83 1090.7
20260509160351 15 278 4.8 9.7 0.00 0.18 0.18 83 1090.8
20260509155846 15 326 4.8 4.8 0.00 0.18 0.18 85 1090.6
20260509155343 15 140 1.6 3.2 0.00 0.18 0.18 88 1090.5
20260509154839 13 63 3.2 6.4 0.00 0.18 0.18 90 1090.5
20260509154336 13 22 1.6 3.2 0.00 0.18 0.18 93 1090.7
20260509153833 12 291 3.2 4.8 0.00 0.18 0.18 94 1090.6
20260509153330 12 303 4.8 6.4 0.00 0.18 0.18 94 1090.7
20260509152827 12 60 1.6 6.4 0.00 0.18 0.18 95 1090.7
20260509152322 12 31 0.0 1.6 0.00 0.18 0.18 96 1090.5
20260509151821 12 352 0.0 1.6 0.00 0.18 0.18 96 1090.6
20260509151316 12 298 1.6 1.6 0.00 0.18 0.18 96 1090.8
20260509150815 12 9 1.6 4.8 0.00 0.18 0.18 96 1090.7
20260509150312 11 357 1.6 1.6 0.00 0.18 0.18 97 1091.0
20260509145810 11 9 1.6 3.2 0.00 0.18 0.18 97 1091.0
20260509145309 11 21 0.0 6.4 0.00 0.18 0.18 97 1090.8
20260509144806 11 328 3.2 3.2 0.00 0.18 0.18 97 1090.8
20260509144303 11 316 1.6 3.2 0.00 0.18 0.18 97 1091.2
20260509143800 11 14 0.0 0.0 0.00 0.18 0.18 97 1091.1
20260509143257 11 330 3.2 6.4 0.00 0.18 0.18 97 1091.0
20260509142753 11 339 1.6 3.2 0.00 0.18 0.18 97 1091.1
20260509142249 11 21 1.6 3.2 0.18 0.18 0.18 97 1091.0
20260509141745 11 274 3.2 4.8 0.18 0.18 0.18 97 1090.8
20260509141242 11 345 1.6 4.8 0.00 0.15 0.15 97 1091.0
20260509140739 11 28 0.0 1.6 0.13 0.15 0.15 97 1090.8
20260509140236 11 17 0.0 0.0 0.13 0.15 0.15 97 1091.0
20260509135733 11 61 1.6 3.2 0.00 0.13 0.13 97 1090.8
20260509135231 11 24 0.0 1.6 0.00 0.13 0.13 97 1091.0
20260509134728 11 36 0.0 3.2 0.00 0.13 0.13 97 1090.8
20260509134226 11 267 1.6 3.2 0.00 0.13 0.13 97 1091.2
20260509133723 11 44 0.0 1.6 0.00 0.13 0.13 98 1091.1
20260509133219 11 40 0.0 1.6 0.00 0.13 0.13 98 1091.2
20260509132718 11 45 0.0 1.6 0.00 0.13 0.13 98 1091.2
20260509132216 11 243 0.0 1.6 0.00 0.13 0.13 98 1091.1
20260509131712 10 358 1.6 1.6 0.00 0.13 0.13 98 1091.2
20260509131209 10 24 0.0 3.2 0.00 0.13 0.13 98 1091.0
20260509130705 10 5 0.0 0.0 0.00 0.13 0.13 98 1091.2
20260509130201 10 10 3.2 3.2 0.00 0.13 0.13 98 1091.2
20260509125658 10 19 0.0 0.0 0.00 0.13 0.13 98 1091.0
20260509125154 10 338 0.0 3.2 0.00 0.13 0.13 98 1091.4
20260509124651 10 28 1.6 3.2 0.18 0.13 0.13 98 1091.2
20260509124148 10 20 0.0 3.2 0.18 0.13 0.13 98 1091.2
20260509123646 10 5 0.0 1.6 0.18 0.10 0.10 98 1091.2
20260509123143 10 13 0.0 1.6 0.18 0.10 0.10 98 1091.2
20260509122638 10 2 3.2 3.2 0.00 0.08 0.08 98 1091.3
20260509122135 10 16 1.6 3.2 0.00 0.08 0.08 98 1091.3
20260509121632 10 20 0.0 3.2 0.00 0.08 0.08 98 1091.2
20260509121130 10 15 0.0 1.6 0.00 0.08 0.08 98 1091.3
20260509120627 10 20 0.0 0.0 0.00 0.08 0.08 98 1091.4
20260509120126 10 23 0.0 1.6 0.00 0.08 0.08 98 1091.5
20260509115623 10 19 0.0 0.0 0.00 0.08 0.08 98 1091.3
20260509115120 10 32 0.0 0.0 0.00 0.08 0.08 98 1091.2
20260509114618 10 16 0.0 0.0 0.00 0.08 0.08 98 1091.3
20260509114117 10 355 0.0 0.0 0.00 0.08 0.08 98 1091.2
20260509113614 10 26 0.0 1.6 0.13 0.08 0.08 98 1091.0
20260509113112 10 27 0.0 0.0 0.00 0.05 0.05 98 1091.2
20260509112608 10 26 0.0 0.0 0.00 0.05 0.05 98 1091.1
20260509112105 10 19 0.0 0.0 0.00 0.05 0.05 98 1091.2
20260509111603 10 19 0.0 0.0 0.00 0.05 0.05 98 1091.2
20260509111059 10 16 0.0 0.0 0.00 0.05 0.05 98 1091.0
20260509110556 10 25 0.0 0.0 0.00 0.05 0.05 98 1091.1
20260509110053 10 25 0.0 0.0 0.00 0.05 0.05 98 1091.0
20260509105552 10 17 0.0 0.0 0.00 0.05 0.05 98 1090.8
20260509105049 9 8 0.0 0.0 0.00 0.05 0.05 98 1091.1
20260509104546 9 18 0.0 0.0 0.00 0.05 0.05 98 1090.7
20260509104043 9 18 0.0 0.0 0.00 0.05 0.05 98 1091.0
20260509103540 9 31 0.0 0.0 0.00 0.05 0.05 98 1091.0
20260509103039 9 23 0.0 0.0 0.00 0.05 0.05 98 1091.1
20260509102536 9 23 0.0 0.0 0.00 0.05 0.05 98 1090.7
20260509102032 9 18 0.0 0.0 0.00 0.05 0.05 98 1090.8
20260509101529 9 34 0.0 0.0 0.00 0.05 0.05 98 1090.6
20260509101026 9 35 0.0 0.0 0.00 0.05 0.05 98 1091.0
20260509100523 9 35 0.0 0.0 0.00 0.05 0.05 98 1090.8
20260509100020 9 35 0.0 0.0 0.00 0.05 0.05 98 1090.7
20260509095516 9 35 0.0 0.0 0.00 0.05 0.05 98 1090.8
20260509095014 9 42 0.0 0.0 0.00 0.05 0.05 98 1091.0
20260509094510 9 38 0.0 0.0 0.00 0.05 0.05 98 1091.1
20260509094007 9 23 0.0 0.0 0.00 0.05 0.05 98 1091.2
20260509093506 9 22 0.0 0.0 0.00 0.05 0.05 98 1091.4
20260509093003 9 22 0.0 0.0 0.00 0.05 0.05 97 1091.4
20260509092500 9 21 0.0 0.0 0.00 0.05 0.05 97 1091.7
20260509091959 9 30 0.0 0.0 0.00 0.05 0.05 97 1091.5
20260509091456 9 18 0.0 0.0 0.00 0.05 0.05 97 1091.4
20260509090952 9 16 0.0 0.0 0.00 0.05 0.05 97 1091.4
20260509090450 9 34 0.0 0.0 0.00 0.05 0.05 97 1091.4
20260509085947 9 36 0.0 0.0 0.00 0.05 0.05 97 1091.4
20260509085444 9 29 0.0 0.0 0.00 0.05 0.05 97 1091.5
20260509084940 9 29 0.0 0.0 0.00 0.05 0.05 97 1091.5
20260509084437 9 29 0.0 0.0 0.18 0.05 0.05 97 1091.7
20260509083935 9 29 0.0 0.0 0.18 0.05 0.05 97 1091.7
20260509083432 9 29 0.0 0.0 0.00 0.03 0.03 97 1091.7
20260509082929 9 29 0.0 0.0 0.00 0.03 0.03 97 1091.8
20260509082426 8 20 0.0 0.0 0.00 0.03 0.03 97 1091.9
20260509081922 8 13 0.0 0.0 0.00 0.03 0.03 97 1092.1
20260509081420 9 14 0.0 0.0 0.00 0.03 0.03 97 1091.9
20260509080917 9 14 0.0 0.0 0.00 0.03 0.03 97 1091.8
20260509080415 9 33 0.0 0.0 0.00 0.03 0.03 97 1091.7
20260509075913 9 30 0.0 0.0 0.00 0.03 0.03 97 1091.8
20260509075410 9 17 0.0 0.0 0.00 0.03 0.03 97 1091.9
20260509074908 9 31 0.0 0.0 0.00 0.03 0.03 97 1092.1
20260509074405 9 10 0.0 0.0 0.00 0.03 0.03 97 1092.2
20260509073901 9 25 0.0 0.0 0.00 0.03 0.03 97 1092.2
20260509073358 9 36 0.0 0.0 0.00 0.03 0.03 97 1092.1
20260509072854 9 31 0.0 0.0 0.00 0.03 0.03 97 1091.8
20260509072350 9 30 0.0 0.0 0.00 0.03 0.03 97 1091.9
20260509071847 9 17 0.0 0.0 0.00 0.03 0.03 97 1091.9
20260509071344 9 18 0.0 0.0 0.00 0.03 0.03 97 1091.9
20260509070842 9 18 0.0 0.0 0.00 0.03 0.03 97 1091.9
20260509070338 9 12 0.0 0.0 0.00 0.03 0.03 97 1091.8
20260509065834 9 14 0.0 0.0 0.00 0.03 0.03 97 1091.8
20260509065331 9 31 0.0 0.0 0.00 0.03 0.03 97 1091.8
20260509064826 9 30 0.0 0.0 0.00 0.03 0.03 97 1091.7
20260509064325 9 24 0.0 0.0 0.00 0.03 0.03 97 1091.7
20260509063822 9 23 0.0 0.0 0.00 0.03 0.03 97 1091.8
20260509063318 9 42 0.0 0.0 0.00 0.03 0.03 97 1091.8
20260509062815 9 26 0.0 0.0 0.00 0.03 0.03 97 1092.2
20260509062312 9 26 0.0 0.0 0.00 0.03 0.03 97 1092.2
20260509061809 9 31 0.0 0.0 0.00 0.03 0.03 97 1092.3